GW1690 Weather Reports


time (UTC)temp
C
wind
direction
speed
KPH
gust
KPH
rain 1hr
cm
rain 24hr
cm
rain mn
cm
humidity
%
barometer
mb
20260906140535 25 216 1.6 1.6 0.00 0.00 0.00 78 857.8
20260906140053 25 242 1.6 4.8 0.00 0.00 0.00 78 857.8
20260906135533 25 260 1.6 3.2 0.00 0.00 0.00 79 857.8
20260906135033 25 270 1.6 4.8 0.00 0.00 0.00 79 857.8
20260906134553 25 263 1.6 3.2 0.00 0.00 0.00 80 857.8
20260906134034 25 264 1.6 3.2 0.00 0.00 0.00 80 857.8
20260906133557 25 257 1.6 4.8 0.00 0.00 0.00 80 857.8
20260906133034 25 253 1.6 3.2 0.00 0.00 0.00 81 857.8
20260906132534 24 309 1.6 3.2 0.00 0.00 0.00 81 857.8
20260906132034 24 290 0.0 1.6 0.00 0.00 0.00 81 857.8
20260906131533 24 179 1.6 3.2 0.00 0.00 0.00 81 857.8
20260906131034 24 291 1.6 3.2 0.00 0.00 0.00 82 857.8
20260906130535 24 293 0.0 1.6 0.00 0.00 0.00 82 857.8
20260906130034 24 311 0.0 1.6 0.00 0.00 0.00 83 857.7
20260906125534 24 325 0.0 1.6 0.00 0.00 0.00 83 857.7
20260906125034 24 330 1.6 4.8 0.00 0.00 0.00 83 857.7
20260906124534 24 323 0.0 3.2 0.00 0.00 0.00 83 857.7
20260906124034 24 331 1.6 1.6 0.00 0.00 0.00 84 857.7
20260906123533 24 201 0.0 1.6 0.00 0.00 0.00 84 857.7
20260906123035 24 325 0.0 3.2 0.00 0.00 0.00 84 857.7
20260906122534 24 159 0.0 1.6 0.00 0.00 0.00 84 857.7
20260906122034 24 330 1.6 3.2 0.00 0.00 0.00 84 857.7
20260906121534 24 318 1.6 3.2 0.00 0.00 0.00 84 857.7
20260906121055 24 328 1.6 3.2 0.00 0.00 0.00 84 857.7
20260906120534 24 328 1.6 1.6 0.00 0.00 0.00 84 857.7
20260906120036 24 325 0.0 1.6 0.00 0.00 0.00 84 857.7
20260906115556 24 310 0.0 0.0 0.00 0.00 0.00 84 857.7
20260906115038 24 324 0.0 1.6 0.00 0.00 0.00 84 857.7
20260906114534 24 350 0.0 1.6 0.00 0.00 0.00 84 857.7
20260906114055 24 324 0.0 1.6 0.00 0.00 0.00 84 857.7
20260906113535 24 284 0.0 1.6 0.00 0.00 0.00 83 857.7
20260906113036 24 350 0.0 1.6 0.00 0.00 0.00 83 857.7
20260906112536 24 0.0 0.0 0.00 0.00 0.00 83 857.7
20260906112023 24 0.0 0.0 0.00 0.00 0.00 83 857.7
20260906111521 24 0.0 0.0 0.00 0.00 0.00 83 857.7
20260906111020 24 0.0 0.0 0.00 0.00 0.00 83 857.8
20260906110522 25 0.0 0.0 0.00 0.00 0.00 82 857.8
20260906110021 25 204 0.0 1.6 0.00 0.00 0.00 82 857.8
20260906105521 25 0.0 0.0 0.00 0.00 0.00 82 857.8
20260906105024 25 292 0.0 1.6 0.00 0.00 0.00 82 857.8
20260906104522 25 290 0.0 3.2 0.00 0.00 0.00 82 857.8
20260906104021 25 299 0.0 1.6 0.00 0.00 0.00 82 857.8
20260906103536 25 286 0.0 1.6 0.00 0.00 0.00 82 857.8
20260906103038 25 273 1.6 3.2 0.00 0.00 0.00 81 857.8
20260906102541 25 280 1.6 3.2 0.00 0.00 0.00 81 857.8
20260906102022 25 280 1.6 3.2 0.00 0.00 0.00 81 857.8
20260906101521 25 272 1.6 3.2 0.00 0.00 0.00 81 857.8
20260906101021 25 269 1.6 3.2 0.00 0.00 0.00 81 857.8
20260906100524 25 253 1.6 1.6 0.00 0.00 0.00 81 857.8
20260906100023 25 254 1.6 3.2 0.00 0.00 0.00 81 857.8
20260906095523 25 261 1.6 3.2 0.00 0.00 0.00 80 857.8
20260906095023 25 267 3.2 6.4 0.00 0.00 0.00 80 857.8
20260906094523 25 249 3.2 4.8 0.00 0.00 0.00 80 857.9
20260906094044 25 262 3.2 4.8 0.00 0.00 0.00 80 857.9
20260906093545 26 263 3.2 6.4 0.00 0.00 0.00 80 857.9
20260906093022 26 245 3.2 4.8 0.00 0.00 0.00 80 857.9
20260906092522 26 252 3.2 4.8 0.00 0.00 0.00 80 857.9
20260906092103 26 249 3.2 4.8 0.00 0.00 0.00 80 857.9
20260906091526 26 239 3.2 4.8 0.00 0.00 0.00 80 857.9
20260906091026 26 244 3.2 4.8 0.00 0.00 0.00 80 857.9
20260906090523 26 247 4.8 4.8 0.00 0.00 0.00 80 857.9
20260906090023 26 248 4.8 6.4 0.00 0.00 0.00 79 857.9
20260906085523 26 242 4.8 6.4 0.00 0.00 0.00 78 857.9
20260906085024 26 238 3.2 4.8 0.00 0.00 0.00 78 857.9
20260906084544 26 237 3.2 4.8 0.00 0.00 0.00 77 858.0
20260906084024 27 234 4.8 8.0 0.00 0.00 0.00 77 858.0
20260906083543 27 242 4.8 6.4 0.00 0.00 0.00 78 858.0
20260906083023 27 232 3.2 4.8 0.00 0.00 0.00 78 858.0
20260906082524 27 256 4.8 6.4 0.00 0.00 0.00 78 858.0
20260906082023 27 239 4.8 6.4 0.00 0.00 0.00 79 858.0
20260906081529 27 244 4.8 4.8 0.00 0.00 0.00 78 858.0
20260906081025 27 236 3.2 4.8 0.00 0.00 0.00 77 858.0
20260906080524 27 243 4.8 6.4 0.00 0.00 0.00 76 858.0
20260906080024 27 239 3.2 4.8 0.00 0.00 0.00 75 858.0
20260906075524 27 232 4.8 6.4 0.00 0.00 0.00 76 858.0
20260906075024 27 231 3.2 4.8 0.00 0.00 0.00 76 858.0
20260906074525 27 239 4.8 4.8 0.00 0.00 0.00 76 858.1
20260906074029 27 242 4.8 6.4 0.00 0.00 0.00 76 858.1
20260906073526 27 236 3.2 4.8 0.00 0.00 0.00 77 858.1
20260906073026 27 240 4.8 4.8 0.00 0.00 0.00 78 858.1
20260906072545 27 238 4.8 6.4 0.00 0.00 0.00 78 858.1
20260906072024 28 234 3.2 4.8 0.00 0.00 0.00 78 858.1
20260906071524 28 236 4.8 6.4 0.00 0.00 0.00 78 858.1
20260906071026 28 236 3.2 4.8 0.00 0.00 0.00 78 858.1
20260906070525 28 237 3.2 4.8 0.00 0.00 0.00 78 858.1
20260906070025 28 234 3.2 4.8 0.00 0.00 0.00 78 858.1
20260906065545 28 237 3.2 6.4 0.00 0.00 0.00 77 858.1
20260906065025 28 239 3.2 4.8 0.00 0.00 0.00 77 858.1
20260906064527 28 245 3.2 4.8 0.00 0.00 0.00 76 858.1
20260906064026 28 240 3.2 4.8 0.00 0.00 0.00 76 858.2
20260906063525 28 236 3.2 4.8 0.00 0.00 0.00 76 947.5
20260906063026 28 236 3.2 4.8 0.00 0.00 0.00 75 1080.1
20260906062526 29 237 3.2 4.8 0.00 0.00 0.00 75 1078.2
20260906062045 29 252 3.2 6.4 0.00 0.00 0.00 74 1076.3
20260906061526 29 238 4.8 6.4 0.00 0.00 0.00 74 1073.8
20260906061030 29 236 3.2 4.8 0.00 0.00 0.00 73 1070.9
20260906060527 29 248 3.2 4.8 0.00 0.00 0.00 73 1068.3
20260906060026 30 239 3.2 4.8 0.00 0.00 0.00 72 1066.4
20260906055526 30 247 3.2 6.4 0.00 0.00 0.00 72 1065.3
20260906055027 30 230 3.2 4.8 0.00 0.00 0.00 72 1063.9
20260906054527 30 243 3.2 4.8 0.00 0.00 0.00 71 1062.8
20260906054026 30 243 3.2 4.8 0.00 0.00 0.00 71 1062.0
20260906053529 30 238 3.2 4.8 0.00 0.00 0.00 71 1061.1
20260906053047 30 244 3.2 4.8 0.00 0.00 0.00 71 1060.4
20260906052521 30 245 3.2 4.8 0.00 0.00 0.00 71 1060.0
20260906052042 30 237 3.2 4.8 0.00 0.00 0.00 71 1059.2
20260906051523 30 248 3.2 4.8 0.00 0.00 0.00 70 1058.4
20260906051021 30 234 3.2 4.8 0.00 0.00 0.00 70 1056.4
20260906050522 30 235 3.2 4.8 0.00 0.00 0.00 70 1055.4
20260906050042 30 236 3.2 4.8 0.00 0.00 0.00 69 1053.9
20260906045522 30 238 3.2 4.8 0.00 0.00 0.00 69 1051.9
20260906045021 30 233 3.2 3.2 0.00 0.00 0.00 69 1049.4
20260906044522 30 236 3.2 3.2 0.00 0.00 0.00 68 1048.1
20260906044023 30 240 3.2 4.8 0.00 0.00 0.00 68 1047.1
20260906043522 30 237 3.2 4.8 0.00 0.00 0.00 68 1044.8
20260906043023 31 243 3.2 4.8 0.00 0.00 0.00 67 1043.9
20260906042543 31 243 3.2 4.8 0.00 0.00 0.00 67 1042.3
20260906042022 31 238 3.2 3.2 0.00 0.00 0.00 66 1039.8
20260906041522 31 244 3.2 4.8 0.00 0.00 0.00 66 1038.9
20260906041023 31 240 3.2 3.2 0.00 0.00 0.00 66 1037.2
20260906040523 31 240 3.2 4.8 0.00 0.00 0.00 65 1035.6
20260906040023 31 242 3.2 4.8 0.00 0.00 0.00 65 1034.1
20260906035525 31 243 3.2 4.8 0.00 0.00 0.00 64 1032.3
20260906035021 31 240 3.2 4.8 0.00 0.00 0.00 64 1030.7
20260906034542 31 249 3.2 4.8 0.00 0.00 0.00 64 1029.4
20260906034041 31 248 3.2 4.8 0.00 0.00 0.00 63 1028.0
20260906033525 31 251 3.2 4.8 0.00 0.00 0.00 63 1026.4
20260906033023 31 250 3.2 4.8 0.00 0.00 0.00 62 1024.7
20260906032523 31 240 3.2 4.8 0.00 0.00 0.00 61 1022.6
20260906032024 31 252 3.2 6.4 0.00 0.00 0.00 61 1021.2
20260906031524 31 245 3.2 4.8 0.00 0.00 0.00 60 1019.3
20260906031021 31 241 3.2 3.2 0.00 0.00 0.00 59 1018.0
20260906030540 31 248 3.2 4.8 0.00 0.00 0.00 58 1017.4
20260906030040 31 253 3.2 4.8 0.00 0.00 0.00 58 1016.7
20260906025523 31 250 3.2 4.8 0.00 0.00 0.00 57 1016.2
20260906025021 31 249 3.2 4.8 0.00 0.00 0.00 57 1015.8
20260906024524 31 247 3.2 4.8 0.00 0.00 0.00 57 1015.5
20260906024025 31 247 3.2 4.8 0.00 0.00 0.00 57 1015.4
20260906023522 31 250 3.2 4.8 0.00 0.00 0.00 57 1015.5
20260906023021 31 242 3.2 4.8 0.00 0.00 0.00 57 1015.6
20260906022541 31 240 3.2 3.2 0.00 0.00 0.00 57 1015.3
20260906022041 31 240 3.2 3.2 0.00 0.00 0.00 56 1015.1
20260906021522 31 240 3.2 4.8 0.00 0.00 0.00 56 1014.9
20260906021022 31 238 3.2 4.8 0.00 0.00 0.00 56 1014.6
20260906020521 31 241 3.2 3.2 0.00 0.00 0.00 55 1014.3
20260906020022 32 238 3.2 3.2 0.00 0.00 0.00 55 1014.0
20260906015523 32 241 3.2 3.2 0.00 0.00 0.00 54 1013.9
20260906015042 32 241 3.2 3.2 0.00 0.00 0.00 54 1013.6
20260906014527 32 241 3.2 3.2 0.00 0.00 0.00 53 1013.4
20260906014102 32 243 3.2 3.2 0.00 0.00 0.00 53 1013.3
20260906013524 32 244 3.2 3.2 0.00 0.00 0.00 52 1013.0
20260906013042 32 237 1.6 3.2 0.00 0.00 0.00 52 1012.8
20260906012524 32 241 1.6 3.2 0.00 0.00 0.00 52 1012.6
20260906012043 32 239 1.6 3.2 0.00 0.00 0.00 51 1012.5
20260906011522 33 241 1.6 3.2 0.00 0.00 0.00 51 1012.4
20260906011024 33 241 1.6 3.2 0.00 0.00 0.00 51 1012.1
20260906010522 33 236 1.6 3.2 0.00 0.00 0.00 50 1012.0
20260906010023 33 251 1.6 3.2 0.00 0.00 0.00 50 1011.9
20260906005523 33 251 1.6 3.2 0.00 0.00 0.00 50 1011.9
20260906005043 33 258 3.2 3.2 0.00 0.00 0.00 50 1011.8
20260906004522 33 260 1.6 3.2 0.00 0.00 0.00 49 1011.5
20260906004027 34 262 1.6 3.2 0.00 0.00 0.00 49 1011.2
20260906003520 34 261 1.6 3.2 0.00 0.00 0.00 48 1011.0
20260906003020 34 267 1.6 3.2 0.00 0.00 0.00 48 1010.9
20260906002521 35 268 1.6 3.2 0.00 0.00 0.00 47 1010.7
20260906002021 35 270 1.6 3.2 0.00 0.00 0.00 47 1010.7
20260906001523 35 269 1.6 3.2 0.00 0.00 0.00 46 1010.3
20260906001123 35 270 1.6 1.6 0.00 0.00 0.00 46 1010.3
20260906000543 35 270 0.0 1.6 0.00 0.00 0.00 45 1010.1
20260906000023 35 273 1.6 1.6 0.00 0.00 0.00 45 1009.9
20260905235522 35 277 1.6 3.2 0.00 0.00 0.00 44 1009.8
20260905235021 35 281 1.6 3.2 0.00 0.00 0.00 44 1009.7
20260905234522 35 283 3.2 4.8 0.00 0.00 0.00 44 1009.7
20260905234021 35 280 1.6 3.2 0.00 0.00 0.00 44 1009.7
20260905233521 36 276 1.6 3.2 0.00 0.00 0.00 43 1009.6
20260905233041 36 277 1.6 3.2 0.00 0.00 0.00 43 1009.5
20260905232524 36 273 1.6 1.6 0.00 0.00 0.00 43 1009.4
20260905232025 36 273 1.6 3.2 0.00 0.00 0.00 43 1009.4
20260905231541 36 275 1.6 3.2 0.00 0.00 0.00 42 1009.3
20260905231023 36 279 1.6 4.8 0.00 0.00 0.00 42 1009.2
20260905230523 36 277 1.6 4.8 0.00 0.00 0.00 42 1009.1
20260905230042 36 278 3.2 6.4 0.00 0.00 0.00 41 1009.0
20260905225522 36 282 1.6 3.2 0.00 0.00 0.00 41 1008.8
20260905225023 37 281 3.2 4.8 0.00 0.00 0.00 40 1008.6
20260905224522 37 282 1.6 4.8 0.00 0.00 0.00 41 1008.7
20260905224022 37 286 1.6 3.2 0.00 0.00 0.00 41 1008.7
20260905223522 37 286 0.0 3.2 0.00 0.00 0.00 41 1008.8
20260905223022 37 287 1.6 4.8 0.00 0.00 0.00 41 1008.9
20260905222522 37 281 1.6 3.2 0.00 0.00 0.00 42 1009.0
20260905222022 37 283 3.2 4.8 0.00 0.00 0.00 41 1008.9
20260905221522 37 288 1.6 4.8 0.00 0.00 0.00 41 1008.9
20260905221043 37 287 1.6 3.2 0.00 0.00 0.00 40 1008.6
20260905220523 38 289 1.6 4.8 0.00 0.00 0.00 40 1008.6
20260905220022 38 288 1.6 6.4 0.00 0.00 0.00 40 1008.6
20260905215520 38 293 1.6 3.2 0.00 0.00 0.00 39 1008.6
20260905215020 38 280 1.6 3.2 0.00 0.00 0.00 39 1008.5
20260905214523 38 288 1.6 4.8 0.00 0.00 0.00 39 1008.5
20260905214023 38 288 1.6 4.8 0.00 0.00 0.00 39 1008.5
20260905213523 38 294 1.6 4.8 0.00 0.00 0.00 39 1008.5
20260905213026 38 275 1.6 4.8 0.00 0.00 0.00 39 1008.5
20260905212545 38 291 1.6 4.8 0.00 0.00 0.00 39 1008.5
20260905212022 38 287 1.6 4.8 0.00 0.00 0.00 38 1008.3
20260905211520 37 280 1.6 4.8 0.00 0.00 0.00 37 1008.2
20260905211022 37 285 1.6 8.0 0.00 0.00 0.00 38 1008.3
20260905210521 37 251 1.6 4.8 0.00 0.00 0.00 38 1008.4
20260905210020 37 224 1.6 6.4 0.00 0.00 0.00 39 1008.5
20260905205524 38 163 1.6 8.0 0.00 0.00 0.00 38 1008.4
20260905205022 38 152 3.2 8.0 0.00 0.00 0.00 37 1008.1
20260905204527 38 251 1.6 8.0 0.00 0.00 0.00 36 1008.0
20260905204022 38 274 1.6 3.2 0.00 0.00 0.00 36 1008.0
20260905203523 38 265 1.6 3.2 0.00 0.00 0.00 36 1008.1
20260905203021 38 295 1.6 4.8 0.00 0.00 0.00 36 1008.0
20260905202521 38 289 1.6 4.8 0.00 0.00 0.00 35 1007.8
20260905202022 38 294 3.2 6.4 0.00 0.00 0.00 35 1007.8
20260905201526 38 293 3.2 6.4 0.00 0.00 0.00 36 1008.1
20260905201042 38 291 3.2 4.8 0.00 0.00 0.00 36 1008.2
20260905200522 38 292 3.2 8.0 0.00 0.00 0.00 36 1008.2
20260905200021 38 281 0.0 3.2 0.00 0.00 0.00 37 1008.5
20260905195521 38 245 1.6 3.2 0.00 0.00 0.00 36 1008.3
20260905195045 38 287 3.2 6.4 0.00 0.00 0.00 36 1008.3
20260905194522 38 289 3.2 9.7 0.00 0.00 0.00 35 1008.3
20260905194024 38 290 1.6 6.4 0.00 0.00 0.00 35 1008.4
20260905193523 38 272 1.6 3.2 0.00 0.00 0.00 36 1008.6
20260905193040 38 217 1.6 6.4 0.00 0.00 0.00 36 1008.6
20260905192523 38 290 3.2 6.4 0.00 0.00 0.00 36 1008.6
20260905192022 38 287 1.6 6.4 0.00 0.00 0.00 36 1008.7
20260905191523 39 298 3.2 4.8 0.00 0.00 0.00 36 1008.7
20260905191022 39 296 3.2 6.4 0.00 0.00 0.00 35 1008.6
20260905190522 39 269 1.6 6.4 0.00 0.00 0.00 35 1008.6
20260905190023 39 278 1.6 4.8 0.00 0.00 0.00 35 1008.7
20260905185524 39 279 1.6 6.4 0.00 0.00 0.00 34 1008.4
20260905185022 39 296 3.2 4.8 0.00 0.00 0.00 34 1008.4
20260905184524 40 298 1.6 3.2 0.00 0.00 0.00 36 1008.9
20260905184020 40 242 1.6 3.2 0.00 0.00 0.00 36 1009.0
20260905183520 40 289 1.6 4.8 0.00 0.00 0.00 36 1008.8
20260905183022 40 293 1.6 4.8 0.00 0.00 0.00 36 1008.9
20260905182525 40 261 1.6 6.4 0.00 0.00 0.00 36 1008.9
20260905182025 40 272 1.6 6.4 0.00 0.00 0.00 36 1008.9
20260905181525 40 114 1.6 9.7 0.00 0.00 0.00 38 1009.0
20260905181045 41 259 1.6 6.4 0.00 0.00 0.00 36 1008.9
20260905180523 41 278 3.2 8.0 0.00 0.00 0.00 36 1008.8
20260905180021 40 262 1.6 6.4 0.00 0.00 0.00 36 1009.0
20260905175541 40 224 1.6 8.0 0.00 0.00 0.00 37 1009.3
20260905175021 40 264 1.6 6.4 0.00 0.00 0.00 37 1009.1
20260905174544 41 190 3.2 8.0 0.00 0.00 0.00 38 1009.2
20260905174021 41 244 1.6 6.4 0.00 0.00 0.00 38 1009.3
20260905173544 41 260 3.2 4.8 0.00 0.00 0.00 37 1009.3
20260905173021 40 252 1.6 6.4 0.00 0.00 0.00 36 1009.1
20260905172522 40 265 1.6 8.0 0.00 0.00 0.00 37 1009.3
20260905172021 40 226 3.2 6.4 0.00 0.00 0.00 38 1009.5
20260905171522 40 262 1.6 4.8 0.00 0.00 0.00 37 1009.6
20260905171022 40 287 3.2 8.0 0.00 0.00 0.00 37 1009.4
20260905170522 40 245 1.6 6.4 0.00 0.00 0.00 37 1009.5
20260905170021 39 255 1.6 8.0 0.00 0.00 0.00 38 1009.8
20260905165523 39 264 1.6 4.8 0.00 0.00 0.00 39 1009.9
20260905165022 39 290 3.2 6.4 0.00 0.00 0.00 40 1009.9
20260905164523 39 288 3.2 8.0 0.00 0.00 0.00 39 1009.9
20260905164022 39 285 3.2 6.4 0.00 0.00 0.00 39 1010.0
20260905163522 38 266 1.6 4.8 0.00 0.00 0.00 42 1010.5
20260905163024 38 268 1.6 4.8 0.00 0.00 0.00 43 1010.8
20260905162542 38 153 1.6 8.0 0.00 0.00 0.00 43 1010.7
20260905162023 38 194 1.6 4.8 0.00 0.00 0.00 41 1010.6
20260905161542 38 244 1.6 4.8 0.00 0.00 0.00 41 1010.3
20260905161023 38 288 1.6 6.4 0.00 0.00 0.00 42 1010.5
20260905160523 38 263 1.6 4.8 0.00 0.00 0.00 43 1010.9
20260905160042 38 189 1.6 4.8 0.00 0.00 0.00 43 1010.7
20260905155524 38 276 1.6 4.8 0.00 0.00 0.00 43 1010.8
20260905155023 37 285 1.6 4.8 0.00 0.00 0.00 43 1011.0
20260905154544 37 272 1.6 6.4 0.00 0.00 0.00 44 1010.9
20260905154025 36 281 1.6 6.4 0.00 0.00 0.00 45 1011.2
20260905153522 36 283 3.2 8.0 0.00 0.00 0.00 46 1011.5
20260905153023 36 280 1.6 4.8 0.00 0.00 0.00 47 1011.8
20260905152523 35 284 1.6 4.8 0.00 0.00 0.00 50 1012.4
20260905152023 34 280 1.6 3.2 0.00 0.00 0.00 52 1012.8
20260905151541 34 217 1.6 4.8 0.00 0.00 0.00 54 1013.1
20260905151020 34 243 0.0 3.2 0.00 0.00 0.00 54 1013.2
20260905150526 34 257 1.6 3.2 0.00 0.00 0.00 53 1012.9
20260905150026 33 256 1.6 3.2 0.00 0.00 0.00 54 1013.0
20260905145527 33 136 1.6 4.8 0.00 0.00 0.00 54 1013.0
20260905145026 33 245 1.6 3.2 0.00 0.00 0.00 55 1013.1
20260905144527 32 228 1.6 4.8 0.00 0.00 0.00 57 1013.5
20260905144027 32 126 0.0 3.2 0.00 0.00 0.00 58 1014.2
20260905143526 31 260 1.6 3.2 0.00 0.00 0.00 60 1016.0
20260905143027 31 244 1.6 3.2 0.00 0.00 0.00 62 1019.3
20260905142527 30 248 3.2 4.8 0.00 0.00 0.00 63 1021.5
20260905142027 30 229 1.6 3.2 0.00 0.00 0.00 64 1023.1
20260905141528 30 171 1.6 3.2 0.00 0.00 0.00 65 1026.1
20260905141028 30 188 3.2 4.8 0.00 0.00 0.00 65 1029.1